• în România
  • Lista ţărilor
  • Pe 7 zile
  • Temperatura apei
  • Hartă satelitară
  • Meteo pe hartă
  • Widget-uri
  • user-avatar
    Intrare

    Meteo pe oră la Darwin

    Astăzi, 28 Mai, Duminică

    Timp Temperatura Precipitaţii Vânt Presiune Umiditate
    00:00 +28°C° 0 mm 3 m/s 759 mmHg 58%
    01:00 +27°C° 0 mm 4 m/s 759 mmHg 59%
    02:00 +27°C° 0 mm 5 m/s 758 mmHg 60%
    03:00 +27°C° 0 mm 5 m/s 758 mmHg 61%
    04:00 +26°C° 0 mm 5 m/s 758 mmHg 63%
    05:00 +26°C° 0 mm 5 m/s 758 mmHg 65%
    06:00 +25°C° 0 mm 5 m/s 758 mmHg 68%
    07:00 +27°C° 0 mm 6 m/s 759 mmHg 63%
    08:00 +28°C° 0 mm 6 m/s 759 mmHg 57%
    09:00 +30°C° 0 mm 6 m/s 759 mmHg 50%
    10:00 +32°C° 0 mm 6 m/s 759 mmHg 44%
    11:00 +34°C° 0 mm 6 m/s 759 mmHg 38%
    12:00 +35°C° 0 mm 6 m/s 758 mmHg 31%
    13:00 +35°C° 0 mm 6 m/s 758 mmHg 31%
    14:00 +36°C° 0 mm 5 m/s 757 mmHg 30%
    15:00 +36°C° 0 mm 5 m/s 757 mmHg 30%
    16:00 +34°C° 0 mm 4 m/s 757 mmHg 36%
    17:00 +32°C° 0 mm 4 m/s 757 mmHg 43%
    18:00 +29°C° 0 mm 3 m/s 757 mmHg 49%
    19:00 +29°C° 0 mm 3 m/s 757 mmHg 50%
    20:00 +28°C° 0 mm 3 m/s 758 mmHg 51%
    21:00 +28°C° 0 mm 3 m/s 758 mmHg 52%
    22:00 +27°C° 0 mm 4 m/s 759 mmHg 52%
    23:00 +27°C° 0 mm 5 m/s 759 mmHg 53%

    Mâine, 29 Mai, Luni

    Timp Temperatura Precipitaţii Vânt Presiune Umiditate
    00:00 +27°C° 0 mm 5 m/s 759 mmHg 54%
    01:00 +27°C° 0 mm 6 m/s 759 mmHg 55%
    02:00 +27°C° 0 mm 6 m/s 759 mmHg 56%
    03:00 +26°C° 0 mm 6 m/s 759 mmHg 57%
    04:00 +26°C° 0 mm 6 m/s 759 mmHg 60%
    05:00 +24°C° 0 mm 6 m/s 759 mmHg 62%
    06:00 +24°C° 0 mm 6 m/s 759 mmHg 65%
    07:00 +26°C° 0 mm 7 m/s 760 mmHg 60%
    08:00 +28°C° 0 mm 8 m/s 760 mmHg 56%
    09:00 +29°C° 0 mm 8 m/s 760 mmHg 51%
    10:00 +32°C° 0 mm 8 m/s 760 mmHg 46%
    11:00 +33°C° 0 mm 8 m/s 759 mmHg 41%
    12:00 +35°C° 0 mm 8 m/s 759 mmHg 36%
    13:00 +35°C° 0 mm 7 m/s 758 mmHg 35%
    14:00 +36°C° 0 mm 7 m/s 758 mmHg 34%
    15:00 +36°C° 0 mm 6 m/s 757 mmHg 33%
    16:00 +34°C° 0 mm 5 m/s 757 mmHg 39%
    17:00 +33°C° 0 mm 4 m/s 758 mmHg 45%
    18:00 +30°C° 0 mm 3 m/s 758 mmHg 51%
    19:00 +29°C° 0 mm 4 m/s 758 mmHg 50%
    20:00 +29°C° 0 mm 4 m/s 759 mmHg 50%
    21:00 +29°C° 0 mm 4 m/s 760 mmHg 49%
    22:00 +28°C° 0 mm 5 m/s 760 mmHg 47%
    23:00 +28°C° 0 mm 7 m/s 760 mmHg 45%

    Poimâine, 30 Mai, Marţi

    Timp Temperatura Precipitaţii Vânt Presiune Umiditate
    00:00 +27°C° 0 mm 8 m/s 760 mmHg 43%
    01:00 +26°C° 0 mm 8 m/s 760 mmHg 46%
    02:00 +26°C° 0 mm 8 m/s 760 mmHg 48%
    03:00 +24°C° 0 mm 8 m/s 760 mmHg 51%
    04:00 +23°C° 0 mm 7 m/s 760 mmHg 52%
    05:00 +23°C° 0 mm 7 m/s 760 mmHg 53%
    06:00 +23°C° 0 mm 7 m/s 760 mmHg 54%
    07:00 +24°C° 0 mm 8 m/s 761 mmHg 45%
    08:00 +26°C° 0 mm 8 m/s 761 mmHg 37%
    09:00 +28°C° 0 mm 9 m/s 762 mmHg 28%
    10:00 +29°C° 0 mm 8 m/s 761 mmHg 26%
    11:00 +32°C° 0 mm 8 m/s 761 mmHg 23%
    12:00 +34°C° 0 mm 8 m/s 760 mmHg 21%
    13:00 +34°C° 0 mm 7 m/s 760 mmHg 20%
    14:00 +35°C° 0 mm 7 m/s 759 mmHg 20%
    15:00 +35°C° 0 mm 6 m/s 758 mmHg 19%
    16:00 +33°C° 0 mm 5 m/s 758 mmHg 23%
    17:00 +30°C° 0 mm 5 m/s 759 mmHg 27%
    18:00 +28°C° 0 mm 4 m/s 759 mmHg 31%
    19:00 +27°C° 0 mm 5 m/s 760 mmHg 30%
    20:00 +27°C° 0 mm 5 m/s 760 mmHg 30%
    21:00 +26°C° 0 mm 6 m/s 761 mmHg 29%
    22:00 +24°C° 0 mm 6 m/s 761 mmHg 29%
    23:00 +24°C° 0 mm 6 m/s 761 mmHg 30%

    31 Mai, Miercuri

    Timp Temperatura Precipitaţii Vânt Presiune Umiditate
    00:00 +23°C° 0 mm 7 m/s 761 mmHg 30%
    01:00 +23°C° 0 mm 7 m/s 760 mmHg 30%
    02:00 +23°C° 0 mm 7 m/s 760 mmHg 29%
    03:00 +23°C° 0 mm 7 m/s 760 mmHg 29%
    04:00 +22°C° 0 mm 7 m/s 760 mmHg 27%
    05:00 +22°C° 0 mm 7 m/s 760 mmHg 26%
    06:00 +22°C° 0 mm 8 m/s 761 mmHg 24%
    07:00 +23°C° 0 mm 8 m/s 761 mmHg 25%
    08:00 +23°C° 0 mm 8 m/s 761 mmHg 25%
    09:00 +24°C° 0 mm 8 m/s 762 mmHg 26%
    10:00 +27°C° 0 mm 8 m/s 761 mmHg 25%
    11:00 +28°C° 0 mm 8 m/s 761 mmHg 25%
    12:00 +30°C° 0 mm 7 m/s 761 mmHg 24%
    13:00 +30°C° 0 mm 7 m/s 760 mmHg 24%
    14:00 +32°C° 0 mm 6 m/s 759 mmHg 24%
    15:00 +33°C° 0 mm 6 m/s 758 mmHg 24%
    16:00 +30°C° 0 mm 5 m/s 759 mmHg 27%
    17:00 +29°C° 0 mm 5 m/s 759 mmHg 30%
    18:00 +27°C° 0 mm 5 m/s 759 mmHg 33%
    19:00 +27°C° 0 mm 5 m/s 760 mmHg 33%
    20:00 +26°C° 0 mm 6 m/s 760 mmHg 33%
    21:00 +26°C° 0 mm 6 m/s 761 mmHg 33%
    22:00 +24°C° 0 mm 6 m/s 761 mmHg 32%
    23:00 +24°C° 0 mm 6 m/s 761 mmHg 32%

    1 Iunie, Joi

    Timp Temperatura Precipitaţii Vânt Presiune Umiditate
    00:00 +24°C° 0 mm 6 m/s 761 mmHg 31%
    01:00 +24°C° 0 mm 6 m/s 760 mmHg 31%
    02:00 +23°C° 0 mm 6 m/s 760 mmHg 32%
    03:00 +23°C° 0 mm 6 m/s 760 mmHg 32%
    04:00 +23°C° 0 mm 6 m/s 760 mmHg 32%
    05:00 +23°C° 0 mm 7 m/s 760 mmHg 32%
    06:00 +23°C° 0 mm 7 m/s 760 mmHg 33%
    07:00 +24°C° 0 mm 7 m/s 761 mmHg 34%
    08:00 +24°C° 0 mm 7 m/s 761 mmHg 35%
    09:00 +26°C° 0 mm 8 m/s 761 mmHg 36%
    10:00 +28°C° 0 mm 7 m/s 761 mmHg 36%
    11:00 +30°C° 0 mm 7 m/s 760 mmHg 35%
    12:00 +32°C° 0 mm 6 m/s 760 mmHg 35%
    13:00 +33°C° 0 mm 6 m/s 759 mmHg 35%
    14:00 +34°C° 0 mm 5 m/s 759 mmHg 36%
    15:00 +34°C° 0 mm 4 m/s 758 mmHg 36%
    16:00 +33°C° 0 mm 4 m/s 758 mmHg 41%
    17:00 +31°C° 0 mm 3 m/s 759 mmHg 45%
    18:00 +29°C° 0 mm 3 m/s 759 mmHg 50%
    19:00 +29°C° 0 mm 4 m/s 759 mmHg 49%
    20:00 +28°C° 0 mm 5 m/s 760 mmHg 48%
    21:00 +28°C° 0 mm 5 m/s 761 mmHg 47%
    22:00 +27°C° 0 mm 6 m/s 760 mmHg 47%
    23:00 +27°C° 0 mm 6 m/s 760 mmHg 48%

    2 Iunie, Vineri

    Timp Temperatura Precipitaţii Vânt Presiune Umiditate
    00:00 +27°C° 0 mm 6 m/s 760 mmHg 49%
    01:00 +27°C° 0 mm 6 m/s 760 mmHg 50%
    02:00 +26°C° 0 mm 6 m/s 759 mmHg 51%
    03:00 +26°C° 0 mm 7 m/s 759 mmHg 52%
    04:00 +26°C° 0 mm 7 m/s 759 mmHg 52%
    05:00 +26°C° 0 mm 7 m/s 759 mmHg 52%
    06:00 +26°C° 0 mm 7 m/s 760 mmHg 52%
    07:00 +26°C° 0 mm 8 m/s 760 mmHg 49%
    08:00 +27°C° 0 mm 8 m/s 761 mmHg 45%
    09:00 +28°C° 0 mm 8 m/s 761 mmHg 42%
    10:00 +29°C° 0 mm 8 m/s 761 mmHg 40%
    11:00 +32°C° 0 mm 7 m/s 760 mmHg 38%
    12:00 +33°C° 0 mm 7 m/s 760 mmHg 35%
    13:00 +34°C° 0 mm 7 m/s 759 mmHg 36%
    14:00 +34°C° 0 mm 6 m/s 758 mmHg 36%
    15:00 +35°C° 0 mm 6 m/s 758 mmHg 36%
    16:00 +33°C° 0 mm 5 m/s 758 mmHg 39%
    17:00 +32°C° 0 mm 5 m/s 758 mmHg 42%
    18:00 +30°C° 0 mm 4 m/s 759 mmHg 45%
    19:00 +29°C° 0 mm 5 m/s 759 mmHg 45%
    20:00 +28°C° 0 mm 5 m/s 760 mmHg 44%
    21:00 +28°C° 0 mm 6 m/s 761 mmHg 44%
    22:00 +27°C° 0 mm 6 m/s 760 mmHg 44%
    23:00 +27°C° 0 mm 7 m/s 760 mmHg 44%
    Arată mai mult